[[{"header":{"parameterUnit":"m.s-1","parameterCategory":1,"la1":30.2991,"la2":30.254,"lo1":-89.0895,"lo2":-89.0444,"dy":0.0017,"dx":0.0017,"nx":28,"ny":28,"refTime":"2025-04-01T09:00:00:Z","depth":0,"parameterNumber":2,"parameterNumberName":"U-component_of_WINDS"},"data":[0,0,0,0,0,0,0,0,0,0,0,0,0,0,0,0,0,0,0,0,0,0,0,0,0,0,0,0,0,0,0,0,0,0,0,0,0,0,0,0,0,0,0,0,0,0,0,0,0,0,0,0,0,0,0,0,0,0,-2.1713,-2.1712,0,-2.1606,-2.1605,-2.1604,-2.1449,-2.1446,-2.1444,-2.1441,-2.1335,-2.1335,-2.1335,0,0,0,0,0,0,0,0,0,0,0,0,0,-2.1783,-2.1783,-2.1713,-2.1712,-2.171,-2.1606,-2.1605,-2.1603,-2.1449,-2.1446,-2.1443,-2.144,-2.1335,-2.1335,-2.1335,0,0,0,0,0,0,0,0,0,0,0,0,0,-2.1723,-2.1783,-2.1713,-2.1621,-2.1611,-2.1607,-2.1605,-2.1603,-2.145,-2.1446,-2.1442,-2.1438,-2.1335,-2.1335,-2.1335,-2.1413,0,0,-2.1333,-2.1333,0,0,0,0,0,0,0,0,-2.1726,-2.172,-2.1636,-2.1627,-2.1617,-2.1537,-2.1591,-2.1539,-2.1451,-2.1512,-2.1441,-2.1436,-2.1406,-2.1399,-2.1388,-2.1408,-2.1403,-2.1333,-2.1333,-2.1333,-2.1333,0,0,0,0,0,0,0,-2.1731,-2.1724,-2.1671,-2.1635,-2.1623,-2.1585,-2.1572,-2.158,-2.1483,-2.1506,-2.1494,-2.1484,-2.14,-2.1389,-2.1385,-2.1402,-2.1333,-2.1333,-2.1332,-2.1332,-2.1476,-2.1479,0,0,0,0,0,0,-2.1748,-2.1729,-2.1674,-2.1667,-2.1663,-2.1587,-2.1572,-2.1567,-2.1482,-2.1465,-2.1487,-2.1477,-2.1392,-2.1385,-2.138,-2.1464,-2.1333,-2.1332,-2.1332,-2.1472,-2.1476,-2.1481,0,0,0,0,0,0,-2.1751,-2.1745,-2.1678,-2.1695,-2.1683,-2.159,-2.1585,-2.1567,-2.1555,-2.1468,-2.145,-2.1494,-2.1388,-2.1381,-2.1405,-2.1458,-2.1332,-2.1332,-2.1467,-2.1473,-2.1479,-2.1633,0,0,0,0,0,0,-2.1753,-2.1747,-2.1776,-2.1697,-2.1683,-2.1705,-2.1588,-2.1567,-2.1555,-2.154,-2.147,-2.1454,-2.1385,-2.1406,-2.1404,-2.1455,-2.1331,-2.1462,-2.147,-2.1477,-2.1623,-2.1644,-2.1662,0,0,0,0,0,-2.1756,-2.1825,-2.1778,-2.1772,-2.1717,-2.1709,-2.1701,-2.1618,-2.156,-2.1588,-2.1531,-2.1457,-2.1452,-2.141,-2.1406,-2.1458,-2.1458,-2.1467,-2.1476,-2.1614,-2.164,-2.1661,0,0,0,0,0,0,-2.1915,-2.1813,-2.176,-2.1805,-2.1766,-2.1682,-2.1716,-2.1649,-2.1627,-2.1614,-2.1513,-2.1499,-2.1535,-2.1498,-2.1453,-2.1527,-2.1443,-2.1453,-2.155,-2.1573,-2.1592,-2.16,-2.1331,0,0,0,0,0,-2.1955,-2.1956,-2.1867,-2.1916,-2.1898,-2.1811,-2.1804,-2.1743,-2.17,-2.1683,-2.1628,-2.1589,-2.1578,-2.1574,-2.1559,-2.1616,-2.1598,-2.165,-2.1669,-2.1686,-2.1695,-2.1719,-2.1741,-2.1511,-2.1511,-2.1511,0,0,-2.2039,-2.1983,-2.199,-2.1946,-2.1909,-2.1912,-2.1798,-2.1807,-2.1808,-2.1684,-2.1702,-2.1661,-2.161,-2.165,-2.1665,-2.1621,-2.1753,-2.1697,-2.1711,-2.1711,-2.1731,-2.1753,-2.1772,-2.1517,-2.1516,-2.1515,0,0,-2.2192,-2.215,-2.2184,-2.2149,-2.2093,-2.2033,-2.2042,-2.1967,-2.1934,-2.195,-2.1856,-2.1856,-2.184,-2.1807,-2.1789,-2.1925,-2.1855,-2.1923,-2.2025,-2.205,-2.2068,-2.2083,-2.213,-2.2148,-2.1932,-2.1932,-2.1933,0,-2.2303,-2.2303,-2.2211,-2.2224,-2.2207,-2.2093,-2.2126,-2.2096,-2.204,-2.203,-2.1981,-2.1956,-2.1915,-2.1944,-2.1977,-2.1966,-2.1971,-2.1931,-2.2072,-2.2087,-2.21,-2.2143,-2.2162,-2.1941,-2.194,-2.1939,-2.1938,0,-2.2441,-2.2443,-2.2477,-2.2423,-2.2409,-2.2433,-2.2344,-2.2341,-2.228,-2.2226,-2.2242,-2.2187,-2.2158,-2.216,-2.2103,-2.2181,-2.2154,-2.2091,-2.2005,-2.2132,-2.2171,-2.2187,-2.1953,-2.195,-2.1948,-2.1945,0,0,-2.2695,-2.2586,-2.26,-2.2572,-2.2501,-2.25,-2.2517,-2.2487,-2.2485,-2.2449,-2.246,-2.2448,-2.2387,-2.2365,-2.2302,-2.2325,-2.2433,-2.2257,-2.2254,-2.229,-2.2512,-2.2561,-2.2582,-2.2385,-2.2388,-2.2391,-2.2516,0,-2.2833,-2.2856,-2.2772,-2.2817,-2.2815,-2.2705,-2.2719,-2.2677,-2.2626,-2.2617,-2.256,-2.2552,-2.2473,-2.2458,-2.2475,-2.2417,-2.2476,-2.2406,-2.2394,-2.2395,-2.241,-2.2602,-2.2654,-2.2775,-2.2531,-2.2533,-2.2535,0,-2.2999,-2.2968,-2.3013,-2.2935,-2.2931,-2.2946,-2.2909,-2.2903,-2.2851,-2.2812,-2.2786,-2.2712,-2.2722,-2.2639,-2.2651,-2.2605,-2.2595,-2.2565,-2.2567,-2.2563,-2.2473,-2.2602,-2.2812,-2.283,-2.2559,-2.2557,-2.2555,0,-2.3177,-2.3148,-2.3169,-2.3149,-2.306,-2.3072,-2.3035,-2.2979,-2.2965,-2.2933,-2.2923,-2.2894,-2.2878,-2.2856,-2.2775,-2.2723,-2.2796,-2.2707,-2.2762,-2.2765,-2.2783,-2.2783,-2.2994,-2.2778,-2.2778,-2.2778,-2.2777,0,-2.3341,-2.3372,-2.3247,-2.3261,-2.3291,-2.3194,-2.3227,-2.3179,-2.3129,-2.3131,-2.3034,-2.3037,-2.293,-2.2921,-2.2858,-2.2876,-2.287,-2.2838,-2.282,-2.2846,-2.285,-2.2838,-2.2827,-2.2783,-2.2781,-2.2781,-2.278,0,-2.3546,-2.3464,-2.348,-2.3392,-2.3371,-2.3397,-2.3322,-2.333,-2.3271,-2.3274,-2.3269,-2.3176,-2.316,-2.3077,-2.3043,-2.2999,-2.3039,-2.3005,-2.3057,-2.3045,-2.3104,-2.31,-2.3314,-2.3336,-2.3109,-2.3111,-2.3113,0,-2.3656,-2.3676,-2.359,-2.3583,-2.355,-2.3541,-2.3525,-2.3429,-2.3416,-2.3356,-2.3371,-2.3347,-2.3322,-2.3302,-2.3232,-2.3203,-2.3167,-2.3244,-2.3163,-2.3187,-2.3166,-2.3166,-2.3166,-2.3262,-2.3265,-2.3268,-2.327,0,-2.3858,-2.3816,-2.3796,-2.3762,-2.3745,-2.3714,-2.3677,-2.3677,-2.3569,-2.356,-2.3541,-2.3522,-2.3484,-2.3461,-2.342,-2.3381,-2.3308,-2.3296,-2.3306,-2.3333,-2.336,-2.3344,-2.3103,-2.3291,-2.3289,-2.3288,-2.3286,-2.3286,-2.4018,-2.403,-2.397,-2.395,-2.3911,-2.3878,-2.388,-2.382,-2.3802,-2.3763,-2.3707,-2.3696,-2.3639,-2.3576,-2.3543,-2.3532,-2.349,-2.3507,-2.3511,-2.3516,-2.3528,-2.3363,-2.3524,-2.3524,-2.3523,-2.3522,-2.3522,0,-2.4214,-2.4169,-2.4152,-2.4101,-2.4085,-2.4015,-2.3969,-2.3961,-2.3951,-2.3905,-2.3881,-2.3858,-2.3833,-2.376,-2.3727,-2.3732,-2.3697,-2.3727,-2.3725,-2.3717,-2.3569,-2.3561,-2.3755,-2.3755,-2.3755,-2.3755,-2.3755,-2.3755,-2.4314,-2.4329,-2.4279,-2.4274,-2.4228,-2.4214,-2.4194,-2.4162,-2.4123,-2.4101,-2.408,-2.4031,-2.3973,-2.3935,-2.3908,-2.3887,-2.3879,-2.392,-2.3887,-2.375,-2.3728,-2.3707,-2.3699,-2.3919,-2.3919,-2.4036,-2.4037,-2.4038]},{"header":{"parameterUnit":"m.s-1","parameterCategory":1,"la1":30.2991,"la2":30.254,"lo1":-89.0895,"lo2":-89.0444,"dy":0.0017,"dx":0.0017,"nx":28,"ny":28,"refTime":"2025-04-01T09:00:00:Z","depth":0,"parameterNumber":3,"parameterNumberName":"V-component_of_WINDS"},"data":[0,0,0,0,0,0,0,0,0,0,0,0,0,0,0,0,0,0,0,0,0,0,0,0,0,0,0,0,0,0,0,0,0,0,0,0,0,0,0,0,0,0,0,0,0,0,0,0,0,0,0,0,0,0,0,0,0,0,-3.374,-3.3739,0,-3.3711,-3.3711,-3.3711,-3.364,-3.3638,-3.3637,-3.3636,-3.3606,-3.3606,-3.3607,0,0,0,0,0,0,0,0,0,0,0,0,0,-3.3731,-3.3731,-3.374,-3.3739,-3.3739,-3.3711,-3.3711,-3.3711,-3.364,-3.3638,-3.3637,-3.3635,-3.3606,-3.3606,-3.3607,0,0,0,0,0,0,0,0,0,0,0,0,0,-3.3722,-3.3731,-3.374,-3.3701,-3.3697,-3.3712,-3.3711,-3.3711,-3.3641,-3.3638,-3.3636,-3.3634,-3.3605,-3.3606,-3.3607,-3.3657,0,0,-3.361,-3.361,0,0,0,0,0,0,0,0,-3.3722,-3.3722,-3.3707,-3.3703,-3.3699,-3.3677,-3.3697,-3.3693,-3.3641,-3.3662,-3.3636,-3.3633,-3.3631,-3.363,-3.3629,-3.3656,-3.3655,-3.361,-3.361,-3.3611,-3.3611,0,0,0,0,0,0,0,-3.3723,-3.3723,-3.3728,-3.3707,-3.3702,-3.3684,-3.368,-3.3696,-3.3659,-3.366,-3.3655,-3.3652,-3.3629,-3.3629,-3.3628,-3.3654,-3.361,-3.3611,-3.3611,-3.3612,-3.3717,-3.3719,0,0,0,0,0,0,-3.3729,-3.3724,-3.3729,-3.3728,-3.3705,-3.3686,-3.3681,-3.3686,-3.3659,-3.3653,-3.3654,-3.3649,-3.3628,-3.3627,-3.3627,-3.3681,-3.3611,-3.3612,-3.3612,-3.3715,-3.3718,-3.372,0,0,0,0,0,0,-3.373,-3.3731,-3.3731,-3.3724,-3.3723,-3.3688,-3.3694,-3.3687,-3.3687,-3.3655,-3.3648,-3.3661,-3.3626,-3.3626,-3.365,-3.368,-3.3612,-3.3613,-3.3712,-3.3716,-3.3719,-3.3793,0,0,0,0,0,0,-3.373,-3.3731,-3.3751,-3.3725,-3.3724,-3.3755,-3.3696,-3.3688,-3.3689,-3.3682,-3.3659,-3.3654,-3.3625,-3.3649,-3.365,-3.368,-3.3614,-3.3709,-3.3714,-3.3718,-3.3788,-3.3799,-3.3808,0,0,0,0,0,-3.373,-3.3773,-3.3752,-3.3753,-3.3747,-3.3757,-3.3756,-3.3722,-3.3692,-3.371,-3.3689,-3.3654,-3.3676,-3.3652,-3.3653,-3.3683,-3.3707,-3.3712,-3.3717,-3.3783,-3.3796,-3.3808,0,0,0,0,0,0,-3.3803,-3.3769,-3.3745,-3.3782,-3.3773,-3.3745,-3.3767,-3.3737,-3.3736,-3.373,-3.3687,-3.3683,-3.3712,-3.37,-3.3673,-3.3729,-3.3686,-3.3692,-3.3735,-3.3748,-3.3758,-3.3759,-3.3614,0,0,0,0,0,-3.3824,-3.3835,-3.3804,-3.384,-3.3836,-3.3803,-3.3806,-3.378,-3.3769,-3.3764,-3.3745,-3.3735,-3.3739,-3.3743,-3.3745,-3.3786,-3.3778,-3.3807,-3.3817,-3.3825,-3.383,-3.3848,-3.3859,-3.3737,-3.3737,-3.3737,0,0,-3.3866,-3.3849,-3.3859,-3.3854,-3.3844,-3.3855,-3.38,-3.3815,-3.3822,-3.3767,-3.3787,-3.3773,-3.3759,-3.379,-3.3803,-3.3781,-3.3862,-3.3832,-3.3839,-3.3839,-3.3854,-3.3866,-3.3876,-3.374,-3.374,-3.3739,0,0,-3.3949,-3.3938,-3.3965,-3.3956,-3.394,-3.3918,-3.3924,-3.39,-3.3888,-3.3909,-3.3866,-3.3874,-3.3883,-3.3874,-3.387,-3.3947,-3.3914,-3.3949,-3.4001,-3.4019,-3.4029,-3.4037,-3.4062,-3.4072,-3.3955,-3.3955,-3.3955,0,-3.4004,-3.402,-3.3983,-3.4,-3.3998,-3.3948,-3.3973,-3.3966,-3.3953,-3.3952,-3.3927,-3.3936,-3.3923,-3.395,-3.3969,-3.3969,-3.3973,-3.3951,-3.4031,-3.4038,-3.4046,-3.4069,-3.4079,-3.3959,-3.3959,-3.3958,-3.3958,0,-3.4086,-3.4098,-3.4121,-3.4109,-3.411,-3.4132,-3.4097,-3.4102,-3.4076,-3.4055,-3.4075,-3.4058,-3.4054,-3.4059,-3.4035,-3.4083,-3.4069,-3.4038,-3.3994,-3.4062,-3.4083,-3.4092,-3.3965,-3.3964,-3.3962,-3.3961,0,0,-3.4215,-3.4181,-3.419,-3.4182,-3.4161,-3.4169,-3.4187,-3.4184,-3.4188,-3.418,-3.4193,-3.4201,-3.4172,-3.4168,-3.4141,-3.4157,-3.4216,-3.4124,-3.4123,-3.414,-3.4265,-3.4287,-3.4298,-3.4194,-3.4196,-3.4197,-3.4265,0,-3.4291,-3.4321,-3.4287,-3.4324,-3.4332,-3.4284,-3.4299,-3.4288,-3.4268,-3.4272,-3.4251,-3.4256,-3.4218,-3.4215,-3.4229,-3.4206,-3.424,-3.4201,-3.4204,-3.4205,-3.4208,-3.431,-3.4333,-3.4399,-3.4274,-3.4275,-3.4276,0,-3.4384,-3.438,-3.4417,-3.4391,-3.4393,-3.4408,-3.4401,-3.4406,-3.4391,-3.4375,-3.437,-3.4338,-3.4352,-3.431,-3.4328,-3.4302,-3.4302,-3.4291,-3.4292,-3.429,-3.4244,-3.4308,-3.4419,-3.4428,-3.4289,-3.4288,-3.4287,0,-3.4472,-3.4475,-3.4497,-3.4493,-3.4464,-3.4475,-3.4463,-3.4446,-3.4445,-3.4438,-3.4437,-3.4433,-3.443,-3.4426,-3.4393,-3.4366,-3.4414,-3.437,-3.44,-3.4401,-3.4412,-3.4411,-3.4522,-3.4415,-3.4415,-3.4415,-3.4414,0,-3.456,-3.4584,-3.4536,-3.4549,-3.4574,-3.4534,-3.456,-3.4543,-3.4527,-3.4535,-3.4494,-3.4502,-3.4458,-3.4461,-3.4436,-3.4453,-3.4453,-3.4439,-3.4432,-3.4442,-3.4443,-3.444,-3.4434,-3.4417,-3.4416,-3.4416,-3.4416,0,-3.4661,-3.4631,-3.4651,-3.4621,-3.4614,-3.4633,-3.4607,-3.4618,-3.4595,-3.4606,-3.4606,-3.4571,-3.4572,-3.4539,-3.4534,-3.4516,-3.4544,-3.4529,-3.4549,-3.4544,-3.4575,-3.4572,-3.4686,-3.4698,-3.4585,-3.4586,-3.4587,0,-3.4718,-3.4736,-3.4707,-3.471,-3.47,-3.4705,-3.4703,-3.4665,-3.4665,-3.4647,-3.4659,-3.4657,-3.4653,-3.4657,-3.463,-3.4625,-3.4609,-3.4649,-3.4608,-3.4617,-3.4607,-3.4605,-3.4606,-3.4658,-3.4659,-3.466,-3.4661,0,-3.4822,-3.4806,-3.4806,-3.48,-3.4799,-3.4792,-3.4783,-3.4787,-3.4745,-3.4747,-3.4747,-3.4744,-3.4738,-3.4736,-3.4726,-3.4712,-3.4679,-3.4674,-3.4681,-3.469,-3.47,-3.4693,-3.4571,-3.4672,-3.4671,-3.467,-3.4669,-3.4669,-3.4902,-3.4914,-3.4895,-3.4896,-3.4884,-3.4876,-3.4883,-3.4862,-3.4862,-3.4853,-3.4831,-3.4835,-3.4816,-3.4799,-3.4788,-3.479,-3.4769,-3.4779,-3.4781,-3.4784,-3.4789,-3.4702,-3.4788,-3.4788,-3.4787,-3.4787,-3.4787,0,-3.5002,-3.4987,-3.4988,-3.4975,-3.4975,-3.4945,-3.4932,-3.4934,-3.4938,-3.4924,-3.492,-3.4919,-3.4916,-3.4889,-3.4882,-3.4888,-3.4873,-3.4888,-3.4886,-3.4883,-3.4808,-3.4803,-3.49,-3.49,-3.49,-3.49,-3.49,-3.49,-3.5053,-3.5071,-3.5052,-3.5063,-3.5048,-3.5051,-3.5046,-3.5037,-3.5026,-3.5027,-3.5024,-3.5006,-3.4986,-3.4977,-3.4972,-3.4964,-3.4962,-3.4982,-3.4968,-3.4899,-3.4888,-3.4878,-3.4872,-3.4982,-3.4982,-3.5042,-3.5043,-3.5043]}]]